This is the latest recevied weather packets stored in our database for station/object KD9CCP. If no packets are shown the sender has not sent any weather packets the latest 1 day(s).
| Time | Temp. | Humidity | Pressure | Rain* | Wind** | Luminosity | Snow |
|---|---|---|---|---|---|---|---|
| 1778051411 | 0° C | 78% | 1012.7 hPa | 0 mm | - | 0 W/m² | - |
| 1778050503 | 0.56° C | 76% | 1013.1 hPa | 0 mm | - | 0 W/m² | - |
| 1778049592 | 0° C | 78% | 1012.5 hPa | 0 mm | - | 0 W/m² | - |
| 1778049290 | 0° C | 80% | 1012.8 hPa | 0 mm | - | 0 W/m² | - |
| 1778048987 | 0° C | 80% | 1012.6 hPa | 0 mm | - | 0 W/m² | - |
| 1778048078 | -0.56° C | 84% | 1013 hPa | 0 mm | - | 0 W/m² | - |
| 1778046868 | -1.11° C | 86% | 1012.8 hPa | 0 mm | - | 0 W/m² | - |
| 1778046564 | -1.11° C | 86% | 1012.8 hPa | 0 mm | - | 0 W/m² | - |
| 1778045957 | -1.11° C | 87% | 1012.8 hPa | 0 mm | - | 0 W/m² | - |
| 1778045656 | -1.11° C | 89% | 1012.7 hPa | 0 mm | - | 0 W/m² | - |
| 1778045354 | -1.11° C | 90% | 1012.7 hPa | 0 mm | - | 0 W/m² | - |
| 1778045052 | -1.11° C | 90% | 1012.7 hPa | 0 mm | - | 0 W/m² | - |
| 1778044750 | -1.67° C | 87% | 1012.5 hPa | 0 mm | - | 0 W/m² | - |
| 1778044446 | -1.67° C | 86% | 1012.5 hPa | 0 mm | - | 0 W/m² | - |
| 1778044143 | -1.67° C | 86% | 1012.5 hPa | 0 mm | - | 0 W/m² | - |
| 1778043841 | -1.67° C | 86% | 1012.7 hPa | 0 mm | - | 0 W/m² | - |
| 1778043234 | -1.11° C | 86% | 1012.5 hPa | 0 mm | - | 0 W/m² | - |
| 1778042931 | -1.11° C | 85% | 1012.6 hPa | 0 mm | - | 0 W/m² | - |
| 1778042629 | -1.11° C | 85% | 1012.5 hPa | 0 mm | - | 0 W/m² | - |
| 1778042023 | -0.56° C | 86% | 1012.5 hPa | 0 mm | - | 0 W/m² | - |
| 1778041721 | -0.56° C | 85% | 1012.7 hPa | 0 mm | - | 0 W/m² | - |
| 1778041420 | 0° C | 86% | 1012.6 hPa | 0 mm | - | 0 W/m² | - |
| 1778040815 | 0° C | 85% | 1012.4 hPa | 0 mm | - | 0 W/m² | - |
| 1778040512 | 0° C | 85% | 1012.7 hPa | 0 mm | - | 0 W/m² | - |
| 1778040210 | 0° C | 84% | 1012.6 hPa | 0 mm | - | 0 W/m² | - |
* Rain latest hour (hover to see other rain measurements)
** Current wind speed in m/s (hover to see current wind gust speed)